Change the Weather History Date:

Monday, September 24, 2012

  Actual Average Record
Temperature  
Mean Temperature 66 °F -  
Max Temperature 76 °F 68 °F 84 °F (2002)
Min Temperature 56 °F 56 °F 44 °F (1998)
Cooling Degree Days 1    
Growing Degree Days 16 (Base 50)    
Moisture  
Dew Point 55 °F    
Average Humidity 62    
Maximum Humidity 78    
Minimum Humidity 40    
Precipitation  
Precipitation 0.00 in - - ()
Sea Level Pressure  
Sea Level Pressure 29.98 in    
Wind  
Wind Speed 5 mph ()    
Max Wind Speed 9 mph    
Max Gust Speed -    
Visibility 6.0 miles    
Events      
Averages and records for this station are not official NWS values.
T = Trace of Precipitation, MM = Missing Value Source: Averaged Metar Reports

Daily Weather History Graph

Daily Weather History Graph

Search for Another Location

Airport or City:

Trip Planner

Search our weather history database for the weather conditions in past years. The results will help you decide how hot, cold, wet, or windy it might be!

Date:

Astronomy

Sep. 24, 2012 Rise Set
Actual Time 6:54 AM EEST 6:58 PM EEST
Civil Twilight 6:27 AM EEST 7:25 PM EEST
Nautical Twilight 5:54 AM EEST 7:57 PM EEST
Astronomical Twilight 5:22 AM EEST 8:30 PM EEST
Moon 3:32 PM EEST (9/24) 12:47 AM EEST (9/24)
Length of Visible Light 12h 58m
Length of Day
12h 03m
Waxing Gibbous, 67% of the Moon is Illuminated
Sep 24
Waxing Gibbous
Sep 30
Full
Oct 8
Last Quarter
Oct 15
New
Oct 22
First Quarter

Hourly Weather History & Observations

Time (EEST) Temp. Dew Point Humidity Pressure Visibility Wind Dir Wind Speed Gust Speed Precip Events Conditions
12:20 AM 62.6 °F 48.2 °F 59% 30.04 in - NNW 5.8 mph - N/A   Clear
12:50 AM 62.6 °F 50.0 °F 63% 30.04 in - North 6.9 mph - N/A   Clear
1:20 AM 62.6 °F 48.2 °F 59% 30.04 in - Variable 5.8 mph - N/A   Clear
1:50 AM 62.6 °F 50.0 °F 63% 30.04 in - North 6.9 mph - N/A   Clear
2:20 AM 60.8 °F 48.2 °F 63% 30.04 in - North 8.1 mph - N/A   Clear
2:50 AM 60.8 °F 50.0 °F 68% 30.04 in - NNW 5.8 mph - N/A   Clear
3:00 AM 60 °F 49 °F 58% 30.04 in 6 mi NNW 5.8 mph - -  
3:20 AM 60.8 °F 50.0 °F 68% 30.04 in - North 6.9 mph - N/A   Clear
3:50 AM 59.0 °F 48.2 °F 67% 30.04 in - North 8.1 mph - N/A   Clear
4:20 AM 59.0 °F 48.2 °F 67% 30.04 in - North 9.2 mph - N/A   Clear
4:50 AM 59.0 °F 48.2 °F 67% 30.04 in - Calm Calm - N/A   Clear
5:20 AM 59.0 °F 48.2 °F 67% 30.04 in - North 2.3 mph - N/A   Clear
5:50 AM 57.2 °F 48.2 °F 72% 30.04 in - NNW 4.6 mph - N/A   Clear
6:20 AM 57.2 °F 50.0 °F 77% 30.04 in - NNW 4.6 mph - N/A   Clear
6:50 AM 57.2 °F 50.0 °F 77% 30.04 in - Variable 2.3 mph - N/A   Clear
7:20 AM 60.8 °F 51.8 °F 72% 30.04 in - Variable 2.3 mph - N/A   Clear
7:50 AM 62.6 °F 53.6 °F 72% 30.04 in - Variable 2.3 mph - N/A   Clear
8:20 AM 66.2 °F 55.4 °F 68% 30.04 in - Variable 3.5 mph - N/A   Clear
8:50 AM 68.0 °F 57.2 °F 68% 30.04 in - ESE 3.5 mph - N/A   Clear
9:00 AM 68 °F 56 °F 56% 30.04 in 6 mi ESE 3.5 mph - -  
9:20 AM 69.8 °F 57.2 °F 64% 30.04 in - Variable 3.5 mph - N/A   Clear
9:50 AM 69.8 °F 55.4 °F 60% 30.04 in - South 4.6 mph - N/A   Clear
10:20 AM 71.6 °F 55.4 °F 57% 30.04 in - SSE 3.5 mph - N/A   Clear
10:50 AM 71.6 °F 57.2 °F 60% 30.04 in - South 5.8 mph - N/A   Clear
11:20 AM 71.6 °F 57.2 °F 60% 30.01 in - South 5.8 mph - N/A   Clear
11:50 AM 73.4 °F 59.0 °F 61% 30.01 in - South 5.8 mph - N/A   Clear
12:20 PM 73.4 °F 57.2 °F 57% 30.01 in - Variable 5.8 mph - N/A   Clear
12:50 PM 73.4 °F 57.2 °F 57% 30.01 in - SSW 5.8 mph - N/A   Clear
1:20 PM 73.4 °F 55.4 °F 53% 29.98 in - SSW 4.6 mph - N/A   Clear
1:50 PM 75.2 °F 55.4 °F 50% 29.98 in - SW 5.8 mph - N/A   Clear
2:20 PM 75.2 °F 55.4 °F 50% 29.98 in - SW 6.9 mph - N/A   Clear
2:50 PM 75.2 °F 55.4 °F 50% 29.95 in - WSW 6.9 mph - N/A   Clear
3:00 PM 75 °F 56 °F 40% 29.97 in 6 mi WSW 6.9 mph - -  
3:20 PM 77.0 °F 55.4 °F 47% 29.95 in - SW 5.8 mph - N/A   Clear
3:50 PM 75.2 °F 55.4 °F 50% 29.95 in - SW 5.8 mph - N/A   Clear
4:20 PM 75.2 °F 57.2 °F 53% 29.92 in - WSW 8.1 mph - N/A   Clear
4:50 PM 75.2 °F 57.2 °F 53% 29.92 in - SW 6.9 mph - N/A   Clear
5:20 PM 73.4 °F 57.2 °F 57% 29.92 in - WSW 6.9 mph - N/A   Clear
5:50 PM 73.4 °F 57.2 °F 57% 29.92 in - WSW 4.6 mph - N/A   Clear
6:20 PM 73.4 °F 57.2 °F 57% 29.92 in - SW 3.5 mph - N/A   Clear
6:50 PM 71.6 °F 59.0 °F 64% 29.92 in - WSW 4.6 mph - N/A   Clear
7:20 PM 69.8 °F 59.0 °F 68% 29.92 in - WSW 3.5 mph - N/A   Clear
7:50 PM 71.6 °F 59.0 °F 64% 29.92 in - Variable 2.3 mph - N/A   Clear
8:20 PM 71.6 °F 55.4 °F 57% 29.92 in - Variable 2.3 mph - N/A   Clear
8:50 PM 73.4 °F 57.2 °F 57% 29.89 in - Variable 4.6 mph - N/A   Clear
9:00 PM 74 °F 56 °F 44% 29.91 in 6 mi SE 4.6 mph - -  
9:20 PM 73.4 °F 59.0 °F 61% 29.92 in - Variable 3.5 mph - N/A   Clear
9:50 PM 71.6 °F 59.0 °F 64% 29.89 in - Variable 1.2 mph - N/A   Clear
10:20 PM 69.8 °F 59.0 °F 68% 29.89 in - Variable 1.2 mph - N/A   Clear
10:50 PM 66.2 °F 57.2 °F 73% 29.89 in - Variable 1.2 mph - N/A   Clear
11:20 PM 68.0 °F 60.8 °F 78% 29.89 in - Variable 1.2 mph - N/A   Clear
11:50 PM 64.4 °F 57.2 °F 77% 29.89 in - WNW 2.3 mph - N/A   Clear